This is the latest recevied weather packets stored in our database for station/object N8GD. If no packets are shown the sender has not sent any weather packets the latest 10 day(s).
| Time | Temp. | Humidity | Pressure | Rain* | Wind** | Luminosity | Snow |
|---|---|---|---|---|---|---|---|
| 1777916264 | 20° C | 56% | 1008.9 hPa | 0 mm | - | - | - |
| 1777915363 | 20° C | 55% | 1009 hPa | 0 mm | - | - | - |
| 1777915302 | 20° C | 55% | 1009 hPa | 0 mm | - | - | - |
| 1777914462 | 19.44° C | 58% | 1009.2 hPa | 0 mm | - | - | - |
| 1777913562 | 18.89° C | 54% | 1009.4 hPa | 0 mm | - | - | - |
| 1777912662 | 18.89° C | 53% | 1009.8 hPa | 0 mm | - | - | - |
| 1777911764 | 18.33° C | 56% | 1009.8 hPa | 0 mm | - | - | - |
| 1777910863 | 17.78° C | 56% | 1010 hPa | 0 mm | - | - | - |
| 1777909963 | 17.22° C | 54% | 1010.4 hPa | 0 mm | - | - | - |
| 1777909063 | 17.22° C | 54% | 1010.4 hPa | 0 mm | - | - | - |
| 1777908163 | 16.67° C | 56% | 1010.6 hPa | 0 mm | - | - | - |
| 1777908109 | 16.67° C | 56% | 1010.6 hPa | 0 mm | - | - | - |
| 1777907263 | 16.67° C | 56% | 1010.9 hPa | 0 mm | - | - | - |
| 1777907228 | 16.67° C | 57% | 1010.9 hPa | 0 mm | - | - | - |
| 1777906362 | 16.11° C | 57% | 1011 hPa | 0 mm | - | - | - |
| 1777905464 | 15.56° C | 58% | 1011 hPa | 0 mm | - | - | - |
| 1777904564 | 15° C | 61% | 1011 hPa | 0 mm | - | - | - |
| 1777904503 | 15° C | 61% | 1011 hPa | 0 mm | - | - | - |
| 1777903662 | 14.44° C | 59% | 1011 hPa | 0 mm | - | - | - |
| 1777902763 | 14.44° C | 63% | 1011.2 hPa | 0 mm | - | - | - |
| 1777901864 | 13.89° C | 59% | 1011.4 hPa | 0 mm | - | - | - |
| 1777900963 | 13.33° C | 59% | 1011.3 hPa | 0 mm | - | - | - |
| 1777900064 | 12.78° C | 60% | 1011.5 hPa | 0 mm | - | - | - |
| 1777899163 | 12.22° C | 62% | 1011.6 hPa | 0 mm | - | - | - |
| 1777899105 | 12.22° C | 62% | 1011.6 hPa | 0 mm | - | - | - |
* Rain latest hour (hover to see other rain measurements)
** Current wind speed in m/s (hover to see current wind gust speed)